TimeCDT,TemperatureF,Dew PointF,Humidity,Sea Level PressureIn,VisibilityMPH,Wind Direction,Wind SpeedMPH,Gust SpeedMPH,PrecipitationIn,Events,Conditions,WindDirDegrees,DateUTC
12:15 AM,71.6,66.2,83,30.04,10.0,Calm,Calm,-,N/A,,Mostly Cloudy,0,2012-06-12 05:15:00
12:35 AM,71.6,66.2,83,30.03,10.0,NE,3.5,-,N/A,,Overcast,50,2012-06-12 05:35:00
12:55 AM,71.6,68.0,88,30.02,10.0,ENE,3.5,-,N/A,,Overcast,60,2012-06-12 05:55:00
1:15 AM,71.6,68.0,88,30.02,10.0,ENE,5.8,-,N/A,,Overcast,60,2012-06-12 06:15:00
1:35 AM,71.6,66.2,83,30.03,10.0,ENE,3.5,-,N/A,,Scattered Clouds,70,2012-06-12 06:35:00
1:55 AM,71.6,66.2,83,30.06,10.0,Calm,Calm,-,N/A,,Partly Cloudy,0,2012-06-12 06:55:00
2:15 AM,69.8,66.2,88,30.06,10.0,Calm,Calm,-,N/A,,Mostly Cloudy,0,2012-06-12 07:15:00
2:35 AM,69.8,66.2,88,30.07,10.0,Calm,Calm,-,N/A,,Overcast,0,2012-06-12 07:35:00
2:55 AM,69.8,66.2,88,30.08,10.0,North,3.5,-,N/A,,Scattered Clouds,10,2012-06-12 07:55:00
3:15 AM,69.8,66.2,88,30.09,10.0,Calm,Calm,-,N/A,,Clear,0,2012-06-12 08:15:00
3:35 AM,69.8,66.2,88,30.08,10.0,North,4.6,-,N/A,,Clear,360,2012-06-12 08:35:00
3:55 AM,69.8,66.2,88,30.06,10.0,NE,6.9,-,N/A,,Clear,40,2012-06-12 08:55:00
4:15 AM,68.0,64.4,88,30.06,10.0,NNE,8.1,-,N/A,,Clear,30,2012-06-12 09:15:00
4:35 AM,68.0,64.4,88,30.07,10.0,NNE,6.9,-,N/A,,Clear,20,2012-06-12 09:35:00
4:55 AM,66.2,62.6,88,30.07,10.0,NNE,5.8,-,N/A,,Clear,30,2012-06-12 09:55:00
5:15 AM,66.2,60.8,83,30.08,10.0,NE,5.8,-,N/A,,Clear,40,2012-06-12 10:15:00
5:35 AM,66.2,60.8,83,30.10,10.0,NE,4.6,-,N/A,,Clear,50,2012-06-12 10:35:00
5:55 AM,66.2,60.8,83,30.11,10.0,NE,5.8,-,N/A,,Clear,40,2012-06-12 10:55:00
6:15 AM,66.2,59.0,78,30.09,10.0,NNE,8.1,-,N/A,,Clear,30,2012-06-12 11:15:00
6:35 AM,66.2,59.0,78,30.09,10.0,NNE,9.2,-,N/A,,Clear,30,2012-06-12 11:35:00
6:55 AM,66.2,57.2,73,30.12,10.0,NE,9.2,-,N/A,,Clear,40,2012-06-12 11:55:00
7:15 AM,66.2,57.2,73,30.13,10.0,NE,6.9,-,N/A,,Clear,50,2012-06-12 12:15:00
7:35 AM,66.2,57.2,73,30.15,10.0,ENE,6.9,-,N/A,,Clear,60,2012-06-12 12:35:00
7:55 AM,66.2,57.2,73,30.15,10.0,ENE,6.9,-,N/A,,Clear,70,2012-06-12 12:55:00
8:15 AM,69.8,57.2,64,30.16,10.0,East,5.8,-,N/A,,Clear,80,2012-06-12 13:15:00
8:35 AM,71.6,57.2,60,30.16,10.0,East,9.2,-,N/A,,Clear,80,2012-06-12 13:35:00
8:55 AM,73.4,57.2,57,30.16,10.0,East,10.4,-,N/A,,Clear,90,2012-06-12 13:55:00
9:15 AM,73.4,55.4,53,30.16,10.0,ENE,8.1,-,N/A,,Clear,70,2012-06-12 14:15:00
9:35 AM,75.2,53.6,47,30.16,10.0,ENE,12.7,18.4,N/A,,Clear,60,2012-06-12 14:35:00
9:55 AM,75.2,53.6,47,30.16,10.0,ENE,10.4,-,N/A,,Clear,60,2012-06-12 14:55:00
10:15 AM,75.2,53.6,47,30.16,10.0,ENE,12.7,17.3,N/A,,Clear,70,2012-06-12 15:15:00
10:35 AM,75.2,53.6,47,30.17,10.0,East,11.5,-,N/A,,Clear,80,2012-06-12 15:35:00
10:55 AM,77.0,53.6,44,30.16,10.0,ENE,13.8,19.6,N/A,,Clear,70,2012-06-12 15:55:00
11:15 AM,78.8,53.6,42,30.17,10.0,East,13.8,-,N/A,,Clear,100,2012-06-12 16:15:00
11:35 AM,78.8,53.6,42,30.17,10.0,East,12.7,-,N/A,,Clear,90,2012-06-12 16:35:00
11:55 AM,80.6,53.6,39,30.18,10.0,ESE,13.8,17.3,N/A,,Clear,110,2012-06-12 16:55:00
12:15 PM,80.6,51.8,37,30.17,10.0,East,15.0,19.6,N/A,,Clear,90,2012-06-12 17:15:00
12:35 PM,80.6,53.6,39,30.17,10.0,East,12.7,-,N/A,,Clear,100,2012-06-12 17:35:00
12:55 PM,82.4,51.8,35,30.16,10.0,ENE,13.8,-,N/A,,Clear,60,2012-06-12 17:55:00
1:15 PM,82.4,51.8,35,30.15,10.0,NE,8.1,-,N/A,,Clear,50,2012-06-12 18:15:00
1:35 PM,82.4,48.2,30,30.15,10.0,East,9.2,18.4,N/A,,Clear,90,2012-06-12 18:35:00
2:15 PM,84.2,48.2,29,30.15,10.0,ENE,8.1,-,N/A,,Clear,70,2012-06-12 19:15:00
2:35 PM,84.2,48.2,29,30.15,10.0,ESE,6.9,-,N/A,,Clear,120,2012-06-12 19:35:00
2:55 PM,84.2,48.2,29,30.13,10.0,East,5.8,-,N/A,,Clear,80,2012-06-12 19:55:00
3:15 PM,84.2,48.2,29,30.13,10.0,ENE,5.8,-,N/A,,Clear,60,2012-06-12 20:15:00
3:35 PM,84.2,48.2,29,30.12,10.0,NNE,6.9,-,N/A,,Clear,20,2012-06-12 20:35:00
3:55 PM,84.2,50.0,30,30.11,10.0,NNE,6.9,-,N/A,,Clear,30,2012-06-12 20:55:00
4:15 PM,84.2,48.2,29,30.11,10.0,NNE,8.1,-,N/A,,Clear,30,2012-06-12 21:15:00
4:35 PM,84.2,48.2,29,30.10,10.0,NNE,6.9,-,N/A,,Clear,20,2012-06-12 21:35:00
4:55 PM,82.4,51.8,35,30.09,10.0,NE,8.1,-,N/A,,Clear,50,2012-06-12 21:55:00
5:15 PM,82.4,51.8,35,30.09,10.0,NE,8.1,-,N/A,,Clear,50,2012-06-12 22:15:00
5:35 PM,82.4,50.0,32,30.09,10.0,NNE,8.1,-,N/A,,Clear,20,2012-06-12 22:35:00
5:55 PM,82.4,51.8,35,30.08,10.0,NNE,9.2,-,N/A,,Clear,20,2012-06-12 22:55:00
6:15 PM,82.4,50.0,32,30.07,10.0,NNE,10.4,-,N/A,,Clear,30,2012-06-12 23:15:00
6:35 PM,82.4,51.8,35,30.07,10.0,ENE,9.2,-,N/A,,Clear,60,2012-06-12 23:35:00
6:55 PM,80.6,51.8,37,30.07,10.0,ENE,11.5,-,N/A,,Clear,70,2012-06-12 23:55:00
7:15 PM,80.6,50.0,34,30.07,10.0,NE,6.9,-,N/A,,Clear,50,2012-06-13 00:15:00
7:35 PM,80.6,51.8,37,30.06,10.0,NE,8.1,-,N/A,,Clear,40,2012-06-13 00:35:00
7:55 PM,78.8,53.6,42,30.06,10.0,NE,5.8,-,N/A,,Clear,40,2012-06-13 00:55:00
8:15 PM,77.0,51.8,41,30.07,10.0,ENE,9.2,-,N/A,,Clear,60,2012-06-13 01:15:00
8:35 PM,75.2,51.8,44,30.07,10.0,ENE,6.9,-,N/A,,Clear,70,2012-06-13 01:35:00
8:55 PM,73.4,51.8,47,30.07,10.0,ENE,6.9,-,N/A,,Clear,70,2012-06-13 01:55:00
9:15 PM,73.4,51.8,47,30.08,10.0,East,4.6,-,N/A,,Clear,80,2012-06-13 02:15:00
9:35 PM,73.4,51.8,47,30.09,10.0,East,4.6,-,N/A,,Clear,80,2012-06-13 02:35:00
9:55 PM,71.6,51.8,50,30.11,10.0,East,3.5,-,N/A,,Clear,90,2012-06-13 02:55:00
10:15 PM,71.6,51.8,50,30.11,10.0,ENE,3.5,-,N/A,,Clear,60,2012-06-13 03:15:00
10:35 PM,71.6,51.8,50,30.12,10.0,ENE,4.6,-,N/A,,Clear,70,2012-06-13 03:35:00
10:55 PM,71.6,51.8,50,30.12,10.0,ENE,4.6,-,N/A,,Clear,60,2012-06-13 03:55:00
11:15 PM,69.8,53.6,56,30.11,10.0,NE,5.8,-,N/A,,Clear,50,2012-06-13 04:15:00
11:35 PM,68.0,51.8,56,30.11,10.0,NE,3.5,-,N/A,,Clear,40,2012-06-13 04:35:00
11:55 PM,66.2,51.8,60,30.11,10.0,NE,4.6,-,N/A,,Clear,50,2012-06-13 04:55:00